Time,TemperatureF,DewpointF,PressureIn,WindDirection,WindDirectionDegrees,WindSpeedMPH,WindSpeedGustMPH,Humidity,HourlyPrecipIn,Conditions,Clouds,dailyrainin,SoftwareType,DateUTC
2013-03-31 00:28:00,61.5,58.3,30.04,SW,221,0.0,1.0,89,0.00,,,0.00,meteohub,2013-03-31 05:28:00,
2013-03-31 00:39:00,61.5,58.6,30.03,SW,221,0.0,2.0,90,0.00,,,0.00,meteohub,2013-03-31 05:39:00,
2013-03-31 00:44:00,61.3,58.5,30.03,SW,221,0.0,2.0,90,0.00,,,0.00,meteohub,2013-03-31 05:44:00,
2013-03-31 03:30:00,60.4,58.5,30.01,SW,221,0.0,0.0,93,0.00,,,0.00,meteohub,2013-03-31 08:30:00,
2013-03-31 03:35:00,60.4,58.5,30.01,SW,221,0.0,0.0,93,0.00,,,0.00,meteohub,2013-03-31 08:35:00,
2013-03-31 03:40:00,60.6,58.8,30.01,SW,221,0.0,0.0,94,0.00,,,0.00,meteohub,2013-03-31 08:40:00,
2013-03-31 03:45:00,61.0,59.2,30.01,SW,221,0.0,2.0,94,0.00,,,0.00,meteohub,2013-03-31 08:45:00,
2013-03-31 03:50:00,61.0,59.2,30.00,SW,221,1.0,2.0,94,0.00,,,0.00,meteohub,2013-03-31 08:50:00,
2013-03-31 03:55:00,61.3,59.5,30.00,SW,221,2.0,3.0,94,0.00,,,0.00,meteohub,2013-03-31 08:55:00,
2013-03-31 04:00:00,61.5,59.7,30.00,SW,221,0.0,4.0,94,0.00,,,0.00,meteohub,2013-03-31 09:00:00,
2013-03-31 04:05:00,61.5,59.7,30.00,SW,221,2.0,4.0,94,0.00,,,0.00,meteohub,2013-03-31 09:05:00,
2013-03-31 04:10:00,61.3,59.5,30.00,SW,221,1.0,4.0,94,0.00,,,0.00,meteohub,2013-03-31 09:10:00,
2013-03-31 04:15:00,61.3,59.5,30.00,SW,221,1.0,3.0,94,0.00,,,0.00,meteohub,2013-03-31 09:15:00,
2013-03-31 04:21:00,61.3,59.5,29.99,SW,221,2.0,3.0,94,0.00,,,0.00,meteohub,2013-03-31 09:21:00,
2013-03-31 04:26:00,61.3,59.5,30.00,SW,221,0.0,3.0,94,0.00,,,0.00,meteohub,2013-03-31 09:26:00,
2013-03-31 04:31:00,61.3,59.5,29.99,SW,221,1.0,3.0,94,0.00,,,0.00,meteohub,2013-03-31 09:31:00,
2013-03-31 04:36:00,61.3,59.5,29.99,SW,221,0.0,4.0,94,0.00,,,0.00,meteohub,2013-03-31 09:36:00,
2013-03-31 04:41:00,61.5,60.1,29.99,SW,221,0.0,4.0,95,0.00,,,0.00,meteohub,2013-03-31 09:41:00,
2013-03-31 04:46:00,61.5,60.1,29.99,SW,221,0.0,4.0,95,0.00,,,0.00,meteohub,2013-03-31 09:46:00,
2013-03-31 04:51:00,61.5,60.1,29.99,SW,221,0.0,4.0,95,0.00,,,0.00,meteohub,2013-03-31 09:51:00,
2013-03-31 04:56:00,61.5,60.1,29.99,SW,221,1.0,4.0,95,0.00,,,0.00,meteohub,2013-03-31 09:56:00,
2013-03-31 05:01:00,61.5,60.1,29.99,SW,221,1.0,4.0,95,0.00,,,0.00,meteohub,2013-03-31 10:01:00,
2013-03-31 05:06:00,61.5,60.1,29.99,SW,221,2.0,4.0,95,0.00,,,0.00,meteohub,2013-03-31 10:06:00,
2013-03-31 05:11:00,61.5,60.1,29.99,SW,221,1.0,4.0,95,0.00,,,0.00,meteohub,2013-03-31 10:11:00,
2013-03-31 05:16:00,61.5,60.1,29.99,SW,221,0.0,3.0,95,0.00,,,0.00,meteohub,2013-03-31 10:16:00,
2013-03-31 05:21:00,61.5,60.1,29.99,SW,221,3.0,5.0,95,0.00,,,0.00,meteohub,2013-03-31 10:21:00,
2013-03-31 05:26:00,61.5,60.1,29.99,SW,221,2.0,5.0,95,0.00,,,0.00,meteohub,2013-03-31 10:26:00,
2013-03-31 05:31:00,61.5,60.1,29.99,SW,221,0.0,5.0,95,0.00,,,0.00,meteohub,2013-03-31 10:31:00,
2013-03-31 05:36:00,61.5,60.1,29.99,SW,221,0.0,4.0,95,0.00,,,0.00,meteohub,2013-03-31 10:36:00,
2013-03-31 05:42:00,61.5,60.1,29.99,SW,221,3.0,3.0,95,0.00,,,0.00,meteohub,2013-03-31 10:42:00,
2013-03-31 05:47:00,61.5,60.1,29.99,SW,221,1.0,4.0,95,0.00,,,0.00,meteohub,2013-03-31 10:47:00,
2013-03-31 05:52:00,61.5,60.1,29.99,SW,221,2.0,4.0,95,0.00,,,0.00,meteohub,2013-03-31 10:52:00,
2013-03-31 05:57:00,61.5,60.1,29.99,SW,221,0.0,5.0,95,0.00,,,0.00,meteohub,2013-03-31 10:57:00,
2013-03-31 06:02:00,61.5,60.1,29.99,SW,221,4.0,5.0,95,0.00,,,0.00,meteohub,2013-03-31 11:02:00,
2013-03-31 06:07:00,61.5,60.1,29.99,SW,221,3.0,6.0,95,0.00,,,0.00,meteohub,2013-03-31 11:07:00,
2013-03-31 06:12:00,61.5,60.1,29.99,SW,221,3.0,6.0,95,0.00,,,0.00,meteohub,2013-03-31 11:12:00,
2013-03-31 06:17:00,61.5,60.1,29.99,SW,221,4.0,6.0,95,0.00,,,0.00,meteohub,2013-03-31 11:17:00,
2013-03-31 06:22:00,61.5,60.1,29.99,SW,221,0.0,6.0,95,0.00,,,0.00,meteohub,2013-03-31 11:22:00,
2013-03-31 06:27:00,61.5,60.1,29.99,SW,221,1.0,6.0,95,0.00,,,0.00,meteohub,2013-03-31 11:27:00,
2013-03-31 06:32:00,61.5,60.1,29.99,South,185,1.0,5.0,95,0.00,,,0.00,meteohub,2013-03-31 11:32:00,
2013-03-31 06:37:00,61.5,60.1,29.99,South,185,3.0,5.0,95,0.00,,,0.00,meteohub,2013-03-31 11:37:00,
2013-03-31 06:42:00,61.5,60.1,29.99,South,188,3.0,5.0,95,0.00,,,0.00,meteohub,2013-03-31 11:42:00,
2013-03-31 06:47:00,61.5,60.1,29.99,SSW,202,5.0,5.0,95,0.00,,,0.00,meteohub,2013-03-31 11:47:00,
2013-03-31 06:53:00,61.5,60.1,29.99,SW,224,1.0,7.0,95,0.00,,,0.00,meteohub,2013-03-31 11:53:00,
2013-03-31 06:58:00,61.5,60.1,29.99,SSW,194,4.0,7.0,95,0.00,,,0.00,meteohub,2013-03-31 11:58:00,
2013-03-31 07:03:00,61.7,60.3,30.00,SSW,196,3.0,7.0,95,0.00,,,0.00,meteohub,2013-03-31 12:03:00,
2013-03-31 07:08:00,61.7,60.3,30.00,SSW,198,2.0,7.0,95,0.00,,,0.00,meteohub,2013-03-31 12:08:00,
2013-03-31 07:13:00,61.9,60.8,30.00,SSW,198,2.0,7.0,96,0.00,,,0.00,meteohub,2013-03-31 12:13:00,
2013-03-31 07:18:00,61.9,60.8,30.00,SSW,198,3.0,7.0,96,0.00,,,0.00,meteohub,2013-03-31 12:18:00,
2013-03-31 07:23:00,61.9,60.4,30.00,SSW,198,2.0,5.0,95,0.00,,,0.00,meteohub,2013-03-31 12:23:00,
2013-03-31 07:28:00,62.1,61.0,30.00,SSW,198,3.0,4.0,96,0.00,,,0.00,meteohub,2013-03-31 12:28:00,
2013-03-31 07:33:00,62.2,61.2,29.99,SSW,198,0.0,4.0,96,0.00,,,0.00,meteohub,2013-03-31 12:33:00,
2013-03-31 07:38:00,62.2,61.2,29.99,SSW,198,1.0,4.0,96,0.00,,,0.00,meteohub,2013-03-31 12:38:00,
2013-03-31 07:43:00,62.4,61.3,29.99,SSW,198,2.0,4.0,96,0.00,,,0.00,meteohub,2013-03-31 12:43:00,
2013-03-31 07:48:00,62.4,61.3,29.99,SSW,198,0.0,6.0,96,0.00,,,0.00,meteohub,2013-03-31 12:48:00,
2013-03-31 07:53:00,62.6,61.5,29.99,SSW,198,0.0,6.0,96,0.00,,,0.00,meteohub,2013-03-31 12:53:00,
2013-03-31 07:58:00,62.8,61.7,29.99,SSW,198,1.0,6.0,96,0.00,,,0.00,meteohub,2013-03-31 12:58:00,
2013-03-31 08:03:00,63.0,61.9,29.99,SW,217,3.0,5.0,96,0.00,,,0.00,meteohub,2013-03-31 13:03:00,
2013-03-31 08:08:00,63.1,62.1,29.99,SSW,201,3.0,7.0,96,0.00,,,0.00,meteohub,2013-03-31 13:08:00,
2013-03-31 08:13:00,63.1,62.1,29.99,SSW,203,2.0,7.0,96,0.00,,,0.00,meteohub,2013-03-31 13:13:00,
2013-03-31 08:18:00,63.3,62.2,29.99,SSW,193,4.0,7.0,96,0.00,,,0.00,meteohub,2013-03-31 13:18:00,
2013-03-31 08:23:00,63.3,62.2,29.99,SW,227,5.0,6.0,96,0.00,,,0.00,meteohub,2013-03-31 13:23:00,
2013-03-31 08:28:00,63.3,62.2,29.99,SW,217,1.0,6.0,96,0.00,,,0.00,meteohub,2013-03-31 13:28:00,
2013-03-31 08:34:00,63.3,62.2,29.99,SW,236,2.0,6.0,96,0.00,,,0.00,meteohub,2013-03-31 13:34:00,
2013-03-31 08:39:00,63.3,62.2,29.99,SW,217,3.0,6.0,96,0.00,,,0.00,meteohub,2013-03-31 13:39:00,
2013-03-31 08:44:00,63.5,62.4,29.99,SW,221,3.0,7.0,96,0.00,,,0.00,meteohub,2013-03-31 13:44:00,
2013-03-31 08:49:00,63.7,62.6,29.99,SW,215,6.0,7.0,96,0.00,,,0.00,meteohub,2013-03-31 13:49:00,
2013-03-31 08:54:00,63.7,62.6,29.99,South,191,5.0,7.0,96,0.00,,,0.00,meteohub,2013-03-31 13:54:00,
2013-03-31 08:59:00,63.9,62.8,29.99,South,188,3.0,7.0,96,0.00,,,0.00,meteohub,2013-03-31 13:59:00,
2013-03-31 09:04:00,63.9,62.8,29.99,SW,227,2.0,7.0,96,0.00,,,0.00,meteohub,2013-03-31 14:04:00,
2013-03-31 09:09:00,64.0,63.0,30.00,SW,221,1.0,7.0,96,0.00,,,0.00,meteohub,2013-03-31 14:09:00,
2013-03-31 09:14:00,64.0,63.0,30.00,SW,221,5.0,7.0,96,0.00,,,0.00,meteohub,2013-03-31 14:14:00,
2013-03-31 09:19:00,64.0,63.0,29.99,SW,221,0.0,7.0,96,0.00,,,0.00,meteohub,2013-03-31 14:19:00,
2013-03-31 09:24:00,64.2,63.1,29.99,SW,221,0.0,6.0,96,0.00,,,0.00,meteohub,2013-03-31 14:24:00,
2013-03-31 09:29:00,64.4,63.3,29.99,WSW,244,1.0,5.0,96,0.00,,,0.00,meteohub,2013-03-31 14:29:00,
2013-03-31 09:34:00,64.4,63.3,29.99,SSW,202,1.0,6.0,96,0.00,,,0.00,meteohub,2013-03-31 14:34:00,
2013-03-31 09:39:00,64.6,63.5,29.99,SW,218,0.0,6.0,96,0.00,,,0.00,meteohub,2013-03-31 14:39:00,
2013-03-31 09:44:00,64.8,63.7,29.99,SW,221,4.0,6.0,96,0.00,,,0.00,meteohub,2013-03-31 14:44:00,
2013-03-31 09:49:00,64.8,63.7,29.99,SSW,195,5.0,6.0,96,0.00,,,0.00,meteohub,2013-03-31 14:49:00,
2013-03-31 09:54:00,64.9,63.9,29.99,West,263,3.0,8.0,96,0.00,,,0.00,meteohub,2013-03-31 14:54:00,
2013-03-31 09:59:00,65.5,64.2,29.99,SW,221,5.0,8.0,96,0.00,,,0.00,meteohub,2013-03-31 14:59:00,
2013-03-31 10:04:00,65.7,64.2,29.99,South,186,1.0,9.0,95,0.00,,,0.00,meteohub,2013-03-31 15:04:00,
2013-03-31 10:09:00,65.8,64.0,29.99,SSW,203,4.0,9.0,94,0.00,,,0.00,meteohub,2013-03-31 15:09:00,
2013-03-31 10:14:00,66.0,63.9,29.99,SSW,202,3.0,10.0,93,0.00,,,0.00,meteohub,2013-03-31 15:14:00,
2013-03-31 10:19:00,66.7,64.4,29.99,SSW,209,3.0,10.0,92,0.00,,,0.00,meteohub,2013-03-31 15:19:00,
2013-03-31 10:24:00,67.1,64.4,29.99,SW,232,6.0,10.0,91,0.00,,,0.00,meteohub,2013-03-31 15:24:00,
2013-03-31 10:29:00,66.9,63.5,29.99,South,190,5.0,12.0,89,0.00,,,0.00,meteohub,2013-03-31 15:29:00,
2013-03-31 10:34:00,66.9,63.5,30.00,SW,219,5.0,12.0,89,0.00,,,0.00,meteohub,2013-03-31 15:34:00,
2013-03-31 13:38:00,78.3,66.7,29.95,SW,234,6.0,15.0,68,0.00,,,0.00,meteohub,2013-03-31 18:38:00,
2013-03-31 13:43:00,78.1,66.2,29.94,SW,233,3.0,12.0,67,0.00,,,0.00,meteohub,2013-03-31 18:43:00,
2013-03-31 13:48:00,78.1,66.7,29.94,WSW,248,5.0,10.0,68,0.00,,,0.00,meteohub,2013-03-31 18:48:00,
2013-03-31 13:53:00,78.4,66.6,29.94,South,170,5.0,13.0,67,0.00,,,0.00,meteohub,2013-03-31 18:53:00,
2013-03-31 13:58:00,78.4,66.2,29.94,SW,236,4.0,13.0,66,0.00,,,0.00,meteohub,2013-03-31 18:58:00,
2013-03-31 14:03:00,79.0,66.6,29.94,WSW,239,1.0,10.0,66,0.00,,,0.00,meteohub,2013-03-31 19:03:00,
2013-03-31 14:08:00,78.4,65.3,29.94,WSW,248,5.0,10.0,64,0.00,,,0.00,meteohub,2013-03-31 19:08:00,
2013-03-31 14:13:00,77.4,65.1,29.94,South,190,6.0,10.0,66,0.00,,,0.00,meteohub,2013-03-31 19:13:00,
2013-03-31 14:18:00,77.0,65.1,29.94,SW,222,4.0,12.0,67,0.00,,,0.00,meteohub,2013-03-31 19:18:00,
2013-03-31 14:23:00,76.8,64.9,29.93,SW,224,5.0,12.0,67,0.00,,,0.00,meteohub,2013-03-31 19:23:00,
2013-03-31 14:28:00,76.5,65.1,29.93,SSW,205,3.0,12.0,68,0.00,,,0.00,meteohub,2013-03-31 19:28:00,
2013-03-31 14:33:00,76.3,65.8,29.93,SW,222,3.0,10.0,70,0.00,,,0.00,meteohub,2013-03-31 19:33:00,
2013-03-31 14:39:00,75.9,65.5,29.93,South,188,4.0,11.0,70,0.00,,,0.00,meteohub,2013-03-31 19:39:00,
2013-03-31 14:44:00,75.7,65.3,29.93,WSW,252,4.0,11.0,70,0.00,,,0.00,meteohub,2013-03-31 19:44:00,
2013-03-31 14:49:00,75.7,65.3,29.92,WSW,237,6.0,10.0,70,0.00,,,0.00,meteohub,2013-03-31 19:49:00,
2013-03-31 14:54:00,75.6,65.1,29.92,SW,223,3.0,10.0,70,0.00,,,0.00,meteohub,2013-03-31 19:54:00,
2013-03-31 14:59:00,75.2,65.1,29.92,SW,221,7.0,8.0,71,0.00,,,0.00,meteohub,2013-03-31 19:59:00,
2013-03-31 15:04:00,74.8,65.7,29.93,WSW,248,1.0,9.0,73,0.00,,,0.00,meteohub,2013-03-31 20:04:00,
2013-03-31 15:09:00,74.5,66.4,29.96,North,5,5.0,10.0,76,0.00,,,0.00,meteohub,2013-03-31 20:09:00,
2013-03-31 15:14:00,69.4,60.1,29.99,NNW,331,11.0,11.0,72,0.01,,,0.01,meteohub,2013-03-31 20:14:00,
2013-03-31 15:19:00,61.5,56.7,29.94,NNE,19,38.0,38.0,84,0.03,,,0.03,meteohub,2013-03-31 20:19:00,
2013-03-31 15:24:00,59.5,56.3,29.99,NNE,13,3.0,40.0,89,0.10,,,0.10,meteohub,2013-03-31 20:24:00,
2013-03-31 15:29:00,59.2,56.3,29.99,North,10,7.0,40.0,90,0.11,,,0.11,meteohub,2013-03-31 20:29:00,
2013-03-31 15:34:00,58.6,55.9,29.97,North,5,15.0,40.0,91,0.21,,,0.21,meteohub,2013-03-31 20:34:00,
2013-03-31 15:39:00,58.6,55.9,29.97,NNE,21,16.0,33.0,91,0.36,,,0.36,meteohub,2013-03-31 20:39:00,
2013-03-31 15:44:00,58.6,55.9,29.97,NW,322,20.0,27.0,91,0.37,,,0.37,meteohub,2013-03-31 20:44:00,
2013-03-31 15:49:00,58.8,56.1,29.97,NNE,13,9.0,27.0,91,0.38,,,0.38,meteohub,2013-03-31 20:49:00,
2013-03-31 15:54:00,58.8,56.1,29.98,NE,42,5.0,27.0,91,0.39,,,0.39,meteohub,2013-03-31 20:54:00,
2013-03-31 15:59:00,59.0,56.3,29.99,NNE,25,8.0,27.0,91,0.39,,,0.39,meteohub,2013-03-31 20:59:00,
2013-03-31 16:04:00,59.0,56.3,29.99,NE,34,7.0,21.0,91,0.41,,,0.41,meteohub,2013-03-31 21:04:00,
2013-03-31 16:09:00,59.0,56.3,29.99,NNE,31,10.0,19.0,91,0.43,,,0.43,meteohub,2013-03-31 21:09:00,
2013-03-31 16:14:00,59.2,56.5,29.99,North,9,7.0,19.0,91,0.42,,,0.43,meteohub,2013-03-31 21:14:00,
2013-03-31 16:19:00,59.2,56.5,29.99,NE,37,2.0,18.0,91,0.38,,,0.44,meteohub,2013-03-31 21:19:00,
2013-03-31 16:24:00,59.2,56.5,29.98,NE,36,4.0,15.0,91,0.35,,,0.45,meteohub,2013-03-31 21:24:00,
2013-03-31 16:29:00,59.4,56.7,29.99,North,0,6.0,11.0,91,0.31,,,0.45,meteohub,2013-03-31 21:29:00,
2013-03-31 16:34:00,59.4,56.7,29.99,NNE,18,1.0,11.0,91,0.16,,,0.46,meteohub,2013-03-31 21:34:00,
2013-03-31 16:39:00,59.4,56.7,29.99,NNE,20,2.0,7.0,91,0.10,,,0.47,meteohub,2013-03-31 21:39:00,
2013-03-31 16:44:00,59.4,57.0,29.99,North,9,5.0,7.0,92,0.11,,,0.48,meteohub,2013-03-31 21:44:00,
2013-03-31 16:49:00,59.5,56.8,29.98,North,9,2.0,5.0,91,0.11,,,0.49,meteohub,2013-03-31 21:49:00,
2013-03-31 16:54:00,59.5,56.8,29.98,NNE,27,3.0,5.0,91,0.10,,,0.49,meteohub,2013-03-31 21:54:00,
2013-03-31 16:59:00,59.7,57.0,29.98,NE,34,4.0,5.0,91,0.09,,,0.49,meteohub,2013-03-31 21:59:00,
2013-03-31 17:04:00,59.9,57.2,29.97,NE,35,4.0,5.0,91,0.08,,,0.49,meteohub,2013-03-31 22:04:00,
2013-03-31 17:09:00,59.9,57.2,29.97,NNE,21,3.0,5.0,91,0.06,,,0.49,meteohub,2013-03-31 22:09:00,
2013-03-31 17:14:00,59.7,57.0,29.96,NNE,27,3.0,6.0,91,0.06,,,0.49,meteohub,2013-03-31 22:14:00,
2013-03-31 17:19:00,59.7,57.0,29.96,NE,43,2.0,6.0,91,0.05,,,0.49,meteohub,2013-03-31 22:19:00,
2013-03-31 17:24:00,59.7,57.0,29.97,NNE,31,1.0,6.0,91,0.04,,,0.49,meteohub,2013-03-31 22:24:00,
2013-03-31 17:29:00,59.7,57.0,29.98,NNE,31,0.0,5.0,91,0.04,,,0.49,meteohub,2013-03-31 22:29:00,
2013-03-31 17:34:00,59.9,57.2,29.97,NE,36,1.0,4.0,91,0.02,,,0.49,meteohub,2013-03-31 22:34:00,
2013-03-31 17:39:00,60.1,57.4,29.97,NE,36,1.0,4.0,91,0.04,,,0.51,meteohub,2013-03-31 22:39:00,
2013-03-31 17:44:00,60.3,57.6,29.96,SSE,163,3.0,3.0,91,0.02,,,0.51,meteohub,2013-03-31 22:44:00,
2013-03-31 17:49:00,60.1,57.4,29.93,South,173,5.0,5.0,91,0.02,,,0.51,meteohub,2013-03-31 22:49:00,
2013-03-31 17:54:00,59.7,57.0,29.92,SSE,163,9.0,10.0,91,0.02,,,0.51,meteohub,2013-03-31 22:54:00,
2013-03-31 17:59:00,59.7,57.0,29.90,SSE,163,10.0,10.0,91,0.03,,,0.52,meteohub,2013-03-31 22:59:00,
2013-03-31 18:04:00,59.5,57.2,29.91,ESE,119,3.0,10.0,92,0.03,,,0.52,meteohub,2013-03-31 23:04:00,
2013-03-31 18:10:00,59.5,57.2,29.92,ENE,71,2.0,13.0,92,0.03,,,0.52,meteohub,2013-03-31 23:10:00,
2013-03-31 18:15:00,59.5,57.2,29.91,ESE,120,9.0,13.0,92,0.03,,,0.52,meteohub,2013-03-31 23:15:00,
2013-03-31 18:20:00,59.5,57.2,29.92,SE,142,2.0,10.0,92,0.03,,,0.52,meteohub,2013-03-31 23:20:00,
2013-03-31 18:25:00,59.5,57.2,29.91,SE,146,4.0,9.0,92,0.03,,,0.52,meteohub,2013-03-31 23:25:00,
2013-03-31 18:30:00,59.7,57.4,29.91,SSE,163,6.0,9.0,92,0.03,,,0.52,meteohub,2013-03-31 23:30:00,
2013-03-31 18:35:00,59.7,57.4,29.91,South,184,3.0,10.0,92,0.02,,,0.52,meteohub,2013-03-31 23:35:00,
2013-03-31 18:40:00,59.7,57.4,29.91,South,181,2.0,10.0,92,0.01,,,0.52,meteohub,2013-03-31 23:40:00,
2013-03-31 18:45:00,59.7,57.4,29.91,South,187,3.0,10.0,92,0.01,,,0.52,meteohub,2013-03-31 23:45:00,
2013-03-31 18:50:00,59.5,57.2,29.91,South,181,4.0,9.0,92,0.01,,,0.52,meteohub,2013-03-31 23:50:00,
2013-03-31 18:55:00,59.4,57.0,29.91,SSE,162,7.0,9.0,92,0.01,,,0.52,meteohub,2013-03-31 23:55:00,
2013-03-31 19:00:00,59.2,56.8,29.91,South,172,2.0,9.0,92,0.00,,,0.52,meteohub,2013-04-01 00:00:00,
2013-03-31 19:05:00,59.2,56.8,29.91,SSW,196,1.0,9.0,92,0.00,,,0.52,meteohub,2013-04-01 00:05:00,
2013-03-31 19:10:00,59.0,56.7,29.90,SSW,193,3.0,7.0,92,0.00,,,0.52,meteohub,2013-04-01 00:10:00,
2013-03-31 19:15:00,59.0,56.7,29.90,South,188,5.0,6.0,92,0.00,,,0.52,meteohub,2013-04-01 00:15:00,
2013-03-31 19:20:00,59.0,56.7,29.90,South,186,2.0,6.0,92,0.00,,,0.52,meteohub,2013-04-01 00:20:00,
2013-03-31 19:25:00,58.8,56.5,29.90,South,186,3.0,6.0,92,0.00,,,0.52,meteohub,2013-04-01 00:25:00,
2013-03-31 19:30:00,58.8,56.5,29.90,SSW,193,2.0,6.0,92,0.00,,,0.52,meteohub,2013-04-01 00:30:00,
2013-03-31 19:35:00,58.8,56.5,29.90,SSW,193,3.0,7.0,92,0.00,,,0.52,meteohub,2013-04-01 00:35:00,
2013-03-31 19:40:00,58.8,56.5,29.91,South,184,3.0,7.0,92,0.00,,,0.52,meteohub,2013-04-01 00:40:00,
2013-03-31 19:45:00,58.8,56.5,29.92,South,184,0.0,7.0,92,0.00,,,0.52,meteohub,2013-04-01 00:45:00,
2013-03-31 19:50:00,58.8,56.5,29.93,South,184,0.0,7.0,92,0.00,,,0.52,meteohub,2013-04-01 00:50:00,
2013-03-31 19:55:00,58.6,56.3,29.93,South,184,0.0,5.0,92,0.00,,,0.52,meteohub,2013-04-01 00:55:00,
2013-03-31 20:00:00,58.6,56.3,29.93,South,184,0.0,1.0,92,0.00,,,0.52,meteohub,2013-04-01 01:00:00,
2013-03-31 20:05:00,58.5,56.5,29.93,South,184,0.0,0.0,93,0.00,,,0.52,meteohub,2013-04-01 01:05:00,
2013-03-31 20:10:00,58.6,56.7,29.93,South,184,0.0,0.0,93,0.00,,,0.52,meteohub,2013-04-01 01:10:00,
2013-03-31 20:15:00,58.6,56.7,29.93,South,184,0.0,0.0,93,0.00,,,0.52,meteohub,2013-04-01 01:15:00,
2013-03-31 20:20:00,58.6,56.7,29.93,South,184,2.0,2.0,93,0.00,,,0.52,meteohub,2013-04-01 01:20:00,
2013-03-31 20:25:00,58.6,56.7,29.93,South,184,0.0,3.0,93,0.00,,,0.52,meteohub,2013-04-01 01:25:00,
2013-03-31 20:30:00,58.6,56.7,29.94,South,184,0.0,3.0,93,0.00,,,0.52,meteohub,2013-04-01 01:30:00,
2013-03-31 20:35:00,58.6,56.7,29.94,South,184,1.0,3.0,93,0.00,,,0.52,meteohub,2013-04-01 01:35:00,
2013-03-31 20:40:00,58.6,56.7,29.94,South,184,0.0,2.0,93,0.00,,,0.52,meteohub,2013-04-01 01:40:00,
2013-03-31 20:45:00,58.6,56.7,29.94,South,184,0.0,1.0,93,0.00,,,0.52,meteohub,2013-04-01 01:45:00,
2013-03-31 20:50:00,58.5,56.5,29.94,South,184,0.0,1.0,93,0.00,,,0.52,meteohub,2013-04-01 01:50:00,
2013-03-31 20:55:00,58.5,56.5,29.94,South,184,1.0,3.0,93,0.00,,,0.52,meteohub,2013-04-01 01:55:00,
2013-03-31 21:00:00,58.5,56.5,29.94,South,184,0.0,3.0,93,0.00,,,0.52,meteohub,2013-04-01 02:00:00,
2013-03-31 21:05:00,58.5,56.5,29.94,South,184,0.0,3.0,93,0.00,,,0.52,meteohub,2013-04-01 02:05:00,
2013-03-31 21:10:00,58.5,56.5,29.94,South,184,0.0,2.0,93,0.00,,,0.52,meteohub,2013-04-01 02:10:00,
2013-03-31 21:15:00,58.3,56.3,29.94,South,184,0.0,0.0,93,0.00,,,0.52,meteohub,2013-04-01 02:15:00,
2013-03-31 21:21:00,58.3,56.3,29.94,South,184,0.0,0.0,93,0.00,,,0.52,meteohub,2013-04-01 02:21:00,
2013-03-31 21:26:00,58.3,56.5,29.94,South,184,0.0,0.0,94,0.00,,,0.52,meteohub,2013-04-01 02:26:00,
2013-03-31 21:31:00,58.3,56.5,29.95,South,184,0.0,2.0,94,0.00,,,0.52,meteohub,2013-04-01 02:31:00,
2013-03-31 21:36:00,58.3,56.5,29.95,South,184,0.0,2.0,94,0.00,,,0.52,meteohub,2013-04-01 02:36:00,
2013-03-31 21:41:00,58.1,56.3,29.95,South,184,0.0,1.0,94,0.00,,,0.52,meteohub,2013-04-01 02:41:00,
2013-03-31 21:46:00,58.1,56.3,29.95,South,184,0.0,0.0,94,0.00,,,0.52,meteohub,2013-04-01 02:46:00,
2013-03-31 21:51:00,58.1,56.3,29.95,South,184,0.0,0.0,94,0.00,,,0.52,meteohub,2013-04-01 02:51:00,
2013-03-31 21:56:00,58.3,56.5,29.95,South,184,0.0,0.0,94,0.00,,,0.52,meteohub,2013-04-01 02:56:00,
2013-03-31 22:01:00,58.3,56.5,29.95,South,184,0.0,1.0,94,0.00,,,0.52,meteohub,2013-04-01 03:01:00,
2013-03-31 22:06:00,57.9,56.1,29.95,South,184,0.0,1.0,94,0.00,,,0.52,meteohub,2013-04-01 03:06:00,
2013-03-31 22:11:00,57.9,56.1,29.95,South,184,0.0,1.0,94,0.00,,,0.52,meteohub,2013-04-01 03:11:00,
2013-03-31 22:16:00,57.9,56.1,29.95,South,184,0.0,1.0,94,0.00,,,0.52,meteohub,2013-04-01 03:16:00,
2013-03-31 22:22:00,57.9,56.1,29.95,South,184,0.0,1.0,94,0.00,,,0.52,meteohub,2013-04-01 03:22:00,
2013-03-31 22:27:00,57.7,55.9,29.95,South,184,0.0,1.0,94,0.00,,,0.52,meteohub,2013-04-01 03:27:00,
2013-03-31 22:32:00,57.6,55.8,29.95,South,184,0.0,0.0,94,0.00,,,0.52,meteohub,2013-04-01 03:32:00,
2013-03-31 22:37:00,57.6,55.8,29.95,South,184,0.0,0.0,94,0.00,,,0.52,meteohub,2013-04-01 03:37:00,
2013-03-31 22:42:00,57.4,55.6,29.95,South,184,0.0,1.0,94,0.00,,,0.52,meteohub,2013-04-01 03:42:00,
2013-03-31 22:47:00,57.6,55.8,29.95,South,184,2.0,2.0,94,0.00,,,0.52,meteohub,2013-04-01 03:47:00,
2013-03-31 22:52:00,57.6,55.8,29.95,South,184,2.0,3.0,94,0.00,,,0.52,meteohub,2013-04-01 03:52:00,
2013-03-31 22:57:00,57.7,55.9,29.96,South,184,1.0,3.0,94,0.00,,,0.52,meteohub,2013-04-01 03:57:00,
2013-03-31 23:00:00,57.7,55.9,29.95,South,184,1.0,3.0,94,0.00,,,0.52,meteohub,2013-04-01 04:00:00,
2013-03-31 23:05:00,57.7,56.3,29.95,South,184,1.0,3.0,95,0.00,,,0.52,meteohub,2013-04-01 04:05:00,
2013-03-31 23:10:00,57.7,55.9,29.95,South,184,1.0,2.0,94,0.00,,,0.52,meteohub,2013-04-01 04:10:00,
2013-03-31 23:13:00,57.6,55.8,29.95,South,184,1.0,2.0,94,0.00,,,0.52,meteohub,2013-04-01 04:13:00,
2013-03-31 23:18:00,57.6,56.1,29.95,South,184,0.0,2.0,95,0.00,,,0.52,meteohub,2013-04-01 04:18:00,
2013-03-31 23:23:00,57.6,55.8,29.96,South,184,1.0,2.0,94,0.00,,,0.52,meteohub,2013-04-01 04:23:00,
2013-03-31 23:28:00,57.4,55.6,29.96,South,184,2.0,2.0,94,0.00,,,0.52,meteohub,2013-04-01 04:28:00,
2013-03-31 23:33:00,57.4,55.6,29.96,South,184,0.0,4.0,94,0.00,,,0.52,meteohub,2013-04-01 04:33:00,
2013-03-31 23:38:00,57.4,55.6,29.96,South,184,0.0,4.0,94,0.00,,,0.52,meteohub,2013-04-01 04:38:00,
2013-03-31 23:43:00,57.2,55.4,29.96,South,184,0.0,4.0,94,0.00,,,0.52,meteohub,2013-04-01 04:43:00,
2013-03-31 23:48:00,57.0,55.2,29.96,South,184,0.0,1.0,94,0.00,,,0.52,meteohub,2013-04-01 04:48:00,
2013-03-31 23:53:00,57.0,55.6,29.96,South,184,0.0,0.0,95,0.00,,,0.52,meteohub,2013-04-01 04:53:00,
2013-03-31 23:58:00,57.0,55.6,29.96,South,184,1.0,1.0,95,0.00,,,0.52,meteohub,2013-04-01 04:58:00,